Weather in Sackville

Canada     45°53′47″N   64°22′41″W
temp.,
°C
wind,
m/s
gust,
m/s
humid.,
%
clouds,
%
prec.,
mm/h
press.,
hPa
HPBL,
m
15 may, sat
sat1500:00+5s11786 0.0 102010
03:00+4se01825 0.0 102110
06:00+3wnw01835 0.0 102210
09:00+11wnw11580 0.0 1023361
12:00+15nw24410 0.0 10231862
15:00+17n253562 0.0 10222452
18:00+15e44495 0.0 1021814
21:00+8ese376898 0.0 1023133
16 may, sun
sun1600:00+8se2564100 0.0 1022109
03:00+7s397382 0.0 1021181
06:00+6ssw118714 0.0 102230
09:00+11nw2373100 0.0 1023539
12:00+11n3372100 0.0 1025737
15:00+11nne446998 0.0 1026964
18:00+9ne4573100 0.0 1026916
21:00+7ne368690 0.0 1027409
17 may, mon
mon1700:00+5nne249295 0.0 1027145
03:00+6nne1389100 0.0 1027218
06:00+5nne1391100 0.0 1027194
09:00+8nne2381100 0.0 1027584
12:00+10ne2367100 0.1 10271040
15:00+12ene326383 0.1 10261105
18:00+13ene225954 0.0 10251150
21:00+7e25915 0.0 102591
18 may, tue
tue1800:00+5sse239381 0.0 102561
03:00+7sse2588100 0.0 1024158
06:00+6s3895100 0.0 1022183
09:00+11ssw51073100 0.1 1021490
12:00+14ssw5877100 0.8 1019901
15:00+12sw4119174 3.1 1016686
18:00+15w488413 3.0 1015869
21:00+8nnw11966 4.4 101721
19 may, wed
wed1900:00+6nw22965 0.2 101742
03:00+4nnw259975 0.2 1018145
06:00+6nnw2798100 0.0 1019449
09:00+8n588165 0.1 1021954
12:00+10n6770100 0.1 10231100
15:00+12n5760100 0.1 10231101
18:00+10nne4770100 0.0 1023610
21:00+6n1191100 0.0 102418